FENGYUN 1C DEB

Satellite information

Favourite Embed

Satellite Type and Status

DEBRISIN ORBIT

Key statistics

Satellite FENGYUN 1C DEB at a glance.

Uptime

9618

Days in orbit

Revolutions

≈ 14.0

Per day

Orbit

SSO

Sun Synchronous Orbit

Inclination

98.2

Latest

Satellite identification and parameters

Extended collection of information and parameters for FENGYUN 1C DEB.

Object identification

Identified? True

Debris? True

Object name: FENGYUN 1C DEB

International designator: 1999-025CBQ

Object number (NORAD): 31658

Object ID (CCSDS): 31658

Country: PEOPLES REPUBLIC OF CHINA (PRC)

Current information (Y/N): Y

RCS size: SMALL

Orbital parameters

Period: 103.025 minutes

Inclination: 98.1579 deg

SMA: 7279.834 km

Apoapsis: 1057.574 km

Periapsis: 745.823 km

RAAN: 109.7655 deg

Eccentricy: 0.02141193

Argument of periapsis: 236.1574 deg

Mean anomaly: 121.905 deg

Mean motion: 13.97721253 rev/day

Mean motion (dot): 0.00005654 rev/day2

B* drag term: 0.0033143056 1/REarth

Two-line elements (TLE)

Creation date: Sept. 7, 2025, 9:49 a.m.

Reference frame: TEME

Reference center: EARTH

Epoch: Sept. 7, 2025, 1:11 a.m. UTC

TLE line 0: 0 FENGYUN 1C DEB

TLE line 1: 1 31658U 99025CBQ 25250.04946201 .00005654 00000-0 33143-2 0 9994

TLE line 2: 2 31658 98.1579 109.7655 0214119 236.1574 121.9050 13.97721253684650

Live tracking on map

Real-time ground track for satellite FENGYUN 1C DEB.

In-orbit conjunctions

A list of the most updated potential collisions computed for object FENGYUN 1C DEB.

Target Orbit TCA Probability of collision Miss distance Type
CZ-4C DEB SSO 2025-07-03 01:25:27 0.000104787 101.0 (m) DEBRIS
INTERCOSMOS 22 LEO 2025-05-27 16:12:56 0.000234345 213.0 (m) PAYLOAD
CZ-6A DEB LEO 2024-11-10 07:12:41 0.0002374239 520.0 (m) DEBRIS

Associated space launch

Chinese polar orbiting meteorological satellite

FENGYUN 1C DEB was lifted into orbit during the mission ‘Long March 4B | Feng Yun 1C’, on board a Long March 4B space rocket.

The launch took place on May 10, 1999, 1:33 a.m. from Launch Complex 7.

For more information about the launch, click the button.

Launch to space Long March 4B | Feng Yun 1C
Long March 4B | Feng Yun 1C

Agency: N/A

Status: Launch Successful

Launch date: May 10, 1999, 1:33 a.m. UTC

Rocket: Long March 4B

Launch pad: Launch Complex 7

Location: Taiyuan Satellite Launch Center, People's Republic of China

...

Latest news about this satellite

There are no fresh news available about this satellite. Check back as we update our databases every day.


Newsletter sign-up

Weekly statistics, charts and insights to help you stay on top of the space industry.